Tracking 18816 objects as of 19-October-2017
HD Live streaming from Space Station
objects crossing your sky now

ATHENA-FIDUS

Track ATHENA-FIDUS now!
ATHENA-FIDUS is classified as:


NORAD ID: 39509
Int'l Code: 2014-006B
Perigee: 35,788.2 km
Apogee: 35,798.8 km
Inclination: 0.0 °
Period: 1,436.1 minutes
Semi major axis: 42164 km
RCS: Unknown
Launch date: February 6, 2014
Source: FRANCE/ITALY (FRIT)
Launch site: FRENCH GUIANA (FRGUI)

ATHENA-FIDUS is a military geostationary satellite featuring EHF and Ka-band transponders.
aabbcc
Your satellite tracking list
Your tracking list is empty





NASA's NSSDC Master Catalog

Two Line Element Set (TLE):
1 39509U 14006B   17290.82137479 +.00000131 +00000-0 +00000-0 0  9992
2 39509 000.0193 255.9208 0001258 329.4192 134.6697 01.00272536013352
Source of the keplerian elements: AFSPC